Location: Epsom
(51.3167°N, 0.2667°W)
Time: 22:13:32
(UTC+00:00)

Daily predictions for brighter satellites

Satellite Brightness Start Highest point End
(mag) Time Altitude Azimuth Time Altitude Azimuth Time Altitude Azimuth
SAR-Lupe-2 3.8 16:27:22 10° SE 16:30:48 45° ENE 16:34:15 10° N
Cosmos 1666 3.2 16:30:00 10° N 16:33:12 31° ENE 16:36:24 10° SE
Spot 4 Rocket 4.3 16:28:17 10° SSE 16:33:25 79° WSW 16:38:35 10° NNW
ARGOS 3.4 16:29:12 10° SSE 16:34:38 79° WSW 16:40:06 10° NNW
Cosmos 1603 4.2 16:30:46 10° NNW 16:36:04 37° NE 16:41:18 10° ESE
PSLV R/B 3.7 16:35:08 10° SSE 16:39:24 82° WSW 16:43:43 10° NNW
Cosmos 1076 Rocket 3.6 16:36:11 10° N 16:40:32 60° ENE 16:44:50 10° SSE
CZ-2C R/B 3.8 16:37:22 10° N 16:42:19 41° WNW 16:47:09 10° SW
Meteor 1-31 Rocket 3.3 16:40:44 10° SE 16:44:04 32° ENE 16:47:26 10° N
Cosmos 1544 2.7 16:42:10 10° N 16:45:27 88° E 16:48:42 10° S
USA 306 3.2 16:43:30 10° W 16:45:33 30° SSW 16:47:29 10° SSE
Tsikada Rocket 4.3 16:40:57 10° SSW 16:47:09 72° WNW 16:53:20 10° N
SJ-7 4.3 16:45:03 10° SSE 16:49:00 67° ENE 16:53:01 10° N
SL-16 R/B 3.1 16:43:40 10° NW 16:49:14 56° WSW 16:54:45 10° S
ATLAS CENTAUR R/B 2.4 16:45:36 10° WNW 16:49:16 89° NE 16:56:21 10° ESE
Cosmos 1238 Rocket 3.3 16:46:47 10° SSW 16:50:12 49° WNW 16:53:15 10° N
Cosmos 1602 4.0 16:48:33 10° N 16:52:08 43° ENE 16:55:42 10° SSE
RESURS DK-1 3.9 16:51:16 10° N 16:54:01 17° NE 16:56:12 12° ENE
USA 305 2.9 16:50:24 10° WNW 16:54:12 70° SSW 16:58:01 10° SE
Cosmos 1607 4.0 16:50:20 10° SW 16:56:41 83° SE 17:03:11 10° NE
Cosmos 1606 4.1 16:54:02 10° SW 16:57:24 36° WNW 17:00:50 10° N
CZ-4B R/B 4.0 16:55:33 10° SE 17:00:06 36° ENE 17:04:35 10° N
Cosmos 1943 3.2 16:54:37 10° NNW 17:00:15 67° ENE 17:05:53 10° SE
Helios 1A 4.3 16:58:43 11° NE 17:01:39 21° E 17:04:48 10° SE
ATLAS 2AS CENTAUR R/B 3.1 16:55:17 10° NW 17:02:01 44° NNE 17:08:25 10° E
Cosmos 1782 4.4 16:59:49 10° ESE 17:02:08 15° E 17:03:03 14° ENE
Cosmos 1500 3.0 17:00:21 10° NNW 17:03:54 83° W 17:07:25 10° S
SMAP 3.0 17:02:02 10° SSE 17:06:40 72° ENE 17:11:20 10° N
Helios 1B rocket 2.9 17:03:16 10° S 17:07:10 61° WSW 17:11:06 10° NNW
CZ-4B R/B 3.6 17:06:28 10° SSE 17:10:01 61° ENE 17:13:39 10° N
Cosmos 407 Rocket 3.6 17:06:40 10° NNW 17:11:45 53° ENE 17:16:44 10° SE
SL-16 R/B 4.1 17:07:21 10° N 17:12:46 32° WNW 17:18:10 10° WSW
Cosmos 2297 Rocket 3.6 17:07:52 10° WSW 17:12:56 33° NW 17:18:03 10° NNE
SOZ 4.3 17:12:08 10° WSW 17:14:16 56° SSE 17:16:19 19° E
Radarsat Rocket 4.3 17:09:08 10° SE 17:14:36 44° ENE 17:20:27 10° N
Cosmos 405 Rocket 3.5 17:12:28 10° SSW 17:16:12 53° WNW 17:20:00 10° N
ISS -1.2 17:15:09 10° W 17:17:49 22° SW 17:20:28 10° SSE
Cosmos 2219 3.6 17:13:48 10° SW 17:19:21 64° NW 17:25:00 10° NNE
Cosmos 2251 Rocket 3.5 17:14:13 10° NNW 17:19:32 64° ENE 17:24:52 10° SE
Lacrosse 5 3.2 17:26:05 10° S 17:29:56 22° SE 17:31:43 19° E
COSMO-SKYMED 1 3.5 17:29:31 22° ENE 17:31:10 28° E 17:34:55 10° SSE
Cosmos-2242 3.0 17:27:31 10° S 17:31:48 60° E 17:36:04 10° NNE
Lacrosse 4 Rocket 1.7 17:27:42 10° NW 17:32:03 72° WSW 17:36:17 10° SSE
Cosmos 1833 Rocket 4.0 17:28:40 10° NNW 17:32:44 20° NNE 17:33:48 19° NE
Cosmos 2082 3.9 17:28:48 10° SW 17:34:25 74° WNW 17:39:46 12° NNE
Cosmos 2058 Rocket 4.0 17:30:34 10° SSW 17:34:52 50° WNW 17:39:11 10° N
APEX 2.9 17:37:08 10° S 17:39:54 39° ESE 17:39:57 39° ESE
Meteor 1-25 Rocket 4.1 17:35:37 10° N 17:41:19 79° ENE 17:46:55 10° SSE
Meteor 2-2 Rocket 4.4 17:35:57 10° S 17:41:33 55° E 17:47:17 10° NNE
USA 234 3.7 17:37:35 21° ENE 17:41:39 44° SE 17:47:50 10° SSW
Cosmos 2344 3.7 17:35:11 10° SSW 17:42:24 50° ESE 17:47:05 22° ENE
Cosmos 2221 4.0 17:39:10 10° SE 17:41:02 19° ESE 17:41:02 19° ESE
Cosmos 1190 Rocket 4.0 17:38:35 10° NNW 17:43:51 58° ENE 17:49:03 10° SE
Cosmos 1812 2.4 17:41:12 10° S 17:44:52 78° E 17:47:41 17° NNE
Cosmos 1818 3.9 17:41:09 10° SSW 17:46:18 46° ESE 17:48:46 28° ENE
USA 276 2.3 17:45:48 10° SW 17:48:03 39° SSE 17:48:03 39° SSE
Cosmos 2026 Rocket 4.1 17:42:42 10° SSE 17:48:43 51° E 17:54:50 10° NNE
Cosmos 2195 Rocket 4.4 17:49:34 10° S 17:55:47 66° E 18:02:00 10° NNE
Cosmos 2263 Rocket 2.7 17:55:04 10° SW 18:00:32 56° NW 18:05:03 15° NNE
Cosmos 1844 Rocket 3.1 17:55:28 10° S 18:00:37 40° ESE 18:02:02 34° ENE
CZ-4B R/B 4.3 18:01:43 25° NE 18:01:43 25° NE 18:05:14 10° N
Cosmos 1766 Rocket 3.6 17:58:42 10° N 18:02:57 49° ENE 18:07:10 10° SSE
Cosmos 1092 Rocket 3.9 18:00:06 10° S 18:06:11 68° E 18:12:17 10° NNE
YAOGAN 1 3.1 18:07:03 38° NE 18:07:03 38° NE 18:10:18 10° N
Nadezhda 4 Rocket 4.2 18:00:09 10° SSW 18:06:17 72° WNW 18:12:26 10° N
Cosmos 1933 3.2 18:03:28 10° S 18:07:24 61° E 18:07:55 55° ENE
Cosmos 1420 Rocket 4.4 18:02:59 10° S 18:07:52 41° ESE 18:08:28 40° E
Cosmos 2227 4.1 18:03:23 10° SSW 18:09:09 84° ESE 18:12:32 26° NNE
Cosmos 2227 Rocket 4.0 18:04:50 10° W 18:09:29 25° NW 18:14:00 10° NNE
Cosmos 2082 Rocket 3.9 18:06:33 10° N 18:09:22 16° NNE 18:09:22 16° NNE
ADEOS 3.4 18:06:14 10° SSE 18:11:27 74° ENE 18:16:40 10° NNW
Meteor 1-5 Rocket 4.1 18:06:21 10° N 18:12:02 72° ENE 18:17:52 10° SSE
Cosmos 1624 Rocket 4.3 18:10:47 10° S 18:15:39 43° ESE 18:15:39 43° ESE
BREEZE-M DEB (TANK) 3.0 18:13:56 10° WSW 18:15:04 30° SW 18:15:04 30° SW
SKYMED 2 3.4 18:18:08 44° NNE 18:19:29 78° ESE 18:23:49 10° S
CZ-4B R/B 3.5 18:20:41 44° NNE 18:20:41 44° NNE 18:23:45 10° N
SL-08 R/B 3.1 18:25:44 64° E 18:25:52 64° ESE 18:30:27 10° S
Cosmos 192 4.2 18:23:11 10° SSW 18:28:03 70° ESE 18:28:35 64° ENE
RESURS DK-1 2.4 18:28:20 10° NNW 18:31:56 66° NNW 18:31:56 66° NNW
Meteor 2-17 Rocket 4.5 18:28:39 10° SSW 18:34:48 81° W 18:40:58 10° N
Helios 1A 3.8 18:35:01 25° N 18:37:09 48° WNW 18:41:08 10° SW
Cosmos 1782 3.3 18:33:44 10° SSW 18:37:35 56° WNW 18:38:16 47° NW
Cosmos 676 Rocket 3.9 18:32:26 10° NNW 18:37:47 89° WSW 18:40:05 35° SSE
EO 1 Delta rocket 4.4 18:43:42 10° S 18:50:17 77° W 18:55:32 10° NNW
ATLAS 2AS CENTAUR R/B 2.8 18:46:28 10° NW 18:53:23 70° SW 18:56:38 32° SSE
CZ-4B DEB 4.2 18:53:03 23° SSE 18:56:40 83° WSW 19:02:16 10° NNW
Cosmos 1241 Rocket 4.4 18:54:34 10° SSW 19:00:35 68° SE 19:00:35 68° SE
ADEOS Rocket 4.2 19:09:44 27° N 19:09:44 27° N 19:12:25 10° N
COSMO-SKYMED 1 3.9 19:06:43 36° NW 19:07:26 38° WNW 19:11:28 10° SW
Cosmos 2056 Rocket 3.7 19:04:07 10° SSW 19:09:06 71° WSW 19:09:06 71° WSW
Lacrosse 5 2.6 19:07:17 10° SW 19:10:56 49° SW 19:10:56 49° SW
Cosmos 1844 3.8 19:06:42 10° SW 19:12:19 76° WNW 19:12:19 76° WNW
COSMOS 2455 4.1 19:07:17 10° SSW 19:10:14 29° S 19:10:14 29° S
Timation 2 Rocket 3.9 19:09:31 10° SW 19:15:29 74° NW 19:15:41 73° NW
Cosmos 1833 Rocket 3.7 19:12:07 10° NNW 19:15:30 36° NNW 19:15:30 36° NNW
Cosmos 2221 4.4 19:15:39 10° SW 19:17:46 26° SW 19:17:46 26° SW
S3M 4.4 19:15:37 10° N 19:20:09 52° NNW 19:20:09 52° NNW
USA 234 3.1 19:24:56 81° NNW 19:25:01 82° NNW 19:31:34 10° WSW
Cosmos 1818 4.5 19:24:41 10° WSW 19:29:25 45° NW 19:29:25 45° NW
Cosmos 1844 Rocket 3.8 19:39:13 10° WSW 19:43:43 41° WNW 19:43:43 41° WNW
Cosmos 2263 Rocket 4.3 19:42:05 10° WNW 19:45:44 17° NNW 19:46:45 17° NNW
Cosmos 2082 Rocket 4.4 19:50:01 10° NNW 19:51:11 16° NNW 19:51:11 16° NNW
Cosmos 2344 3.9 19:49:38 10° WSW 19:56:45 52° NNW 19:57:06 52° NNW
